• In Portugal
  • List of Countries
  • For 7 days
  • Water Temperature
  • Satellite Maps
  • Weather Map
  • Weather Widgets
  • user-avatar
    Login

    Hourly Weather Gabrovo

    Today, 22 September, Saturday

    Time Temperature Precipitation Wind Pressure Humidity
    00:00 +16°C° 0 mm 1 mps 704 mmHg 62%
    01:00 +16°C° 0 mm 1 mps 704 mmHg 65%
    02:00 +15°C° 0 mm 1 mps 704 mmHg 67%
    03:00 +15°C° 0 mm 1 mps 703 mmHg 68%
    04:00 +15°C° 0 mm 1 mps 703 mmHg 69%
    05:00 +14°C° 0 mm 1 mps 703 mmHg 70%
    06:00 +16°C° 0 mm 1 mps 703 mmHg 65%
    07:00 +18°C° 0 mm 1 mps 704 mmHg 60%
    08:00 +19°C° 0 mm 1 mps 704 mmHg 55%
    09:00 +21°C° 0 mm 1 mps 704 mmHg 48%
    10:00 +24°C° 0 mm 1 mps 705 mmHg 41%
    11:00 +26°C° 0 mm 1 mps 705 mmHg 34%
    12:00 +27°C° 0 mm 1 mps 705 mmHg 31%
    13:00 +27°C° 0 mm 1 mps 705 mmHg 29%
    14:00 +28°C° 0 mm 1 mps 704 mmHg 26%
    15:00 +28°C° 0 mm 1 mps 704 mmHg 28%
    16:00 +27°C° 0 mm 1 mps 704 mmHg 29%
    17:00 +27°C° 0 mm 1 mps 704 mmHg 30%
    18:00 +25°C° 0 mm 1 mps 704 mmHg 33%
    19:00 +23°C° 0 mm 1 mps 704 mmHg 36%
    20:00 +21°C° 0 mm 1 mps 704 mmHg 39%
    21:00 +20°C° 0 mm 1 mps 704 mmHg 40%
    22:00 +20°C° 0 mm 1 mps 704 mmHg 42%
    23:00 +18°C° 0 mm 2 mps 704 mmHg 43%

    Tomorrow, 23 September, Sunday

    Time Temperature Precipitation Wind Pressure Humidity
    00:00 +18°C° 0 mm 2 mps 704 mmHg 44%
    01:00 +18°C° 0 mm 2 mps 704 mmHg 46%
    02:00 +17°C° 0 mm 2 mps 704 mmHg 47%
    03:00 +17°C° 0 mm 2 mps 704 mmHg 50%
    04:00 +17°C° 0 mm 2 mps 704 mmHg 54%
    05:00 +16°C° 0 mm 2 mps 704 mmHg 57%
    06:00 +17°C° 0 mm 2 mps 705 mmHg 55%
    07:00 +19°C° 0 mm 2 mps 705 mmHg 53%
    08:00 +20°C° 0 mm 2 mps 706 mmHg 51%
    09:00 +23°C° 0 mm 2 mps 706 mmHg 47%
    10:00 +24°C° 0 mm 2 mps 707 mmHg 42%
    11:00 +26°C° 0 mm 2 mps 707 mmHg 38%
    12:00 +27°C° 0 mm 2 mps 707 mmHg 36%
    13:00 +28°C° 0 mm 2 mps 707 mmHg 34%
    14:00 +29°C° 0 mm 1 mps 706 mmHg 32%
    15:00 +28°C° 0 mm 1 mps 706 mmHg 34%
    16:00 +28°C° 0 mm 1 mps 706 mmHg 35%
    17:00 +28°C° 0 mm 1 mps 706 mmHg 36%
    18:00 +26°C° 0 mm 1 mps 706 mmHg 40%
    19:00 +24°C° 0 mm 1 mps 705 mmHg 45%
    20:00 +21°C° 0 mm 2 mps 705 mmHg 49%
    21:00 +20°C° 0 mm 2 mps 705 mmHg 51%
    22:00 +19°C° 0 mm 2 mps 705 mmHg 54%
    23:00 +19°C° 0 mm 2 mps 705 mmHg 56%

    Day after tomorrow, 24 September, Monday

    Time Temperature Precipitation Wind Pressure Humidity
    00:00 +18°C° 0 mm 2 mps 705 mmHg 60%
    01:00 +18°C° 0 mm 2 mps 704 mmHg 64%
    02:00 +17°C° 0 mm 2 mps 704 mmHg 67%
    03:00 +17°C° 0 mm 2 mps 703 mmHg 70%
    04:00 +16°C° 0 mm 1 mps 703 mmHg 73%
    05:00 +16°C° 0 mm 1 mps 702 mmHg 76%
    06:00 +18°C° 0 mm 1 mps 702 mmHg 71%
    07:00 +19°C° 0 mm 1 mps 702 mmHg 67%
    08:00 +20°C° 0 mm 1 mps 702 mmHg 63%
    09:00 +23°C° 0 mm 1 mps 702 mmHg 54%
    10:00 +25°C° 0 mm 2 mps 702 mmHg 46%
    11:00 +27°C° 0 mm 2 mps 702 mmHg 37%
    12:00 +28°C° 0 mm 2 mps 702 mmHg 34%
    13:00 +30°C° 0 mm 3 mps 702 mmHg 30%
    14:00 +32°C° 0 mm 4 mps 701 mmHg 27%
    15:00 +29°C° 0 mm 5 mps 702 mmHg 32%
    16:00 +27°C° 0 mm 6 mps 702 mmHg 36%
    17:00 +24°C° 0 mm 7 mps 702 mmHg 41%
    18:00 +22°C° 0 mm 6 mps 702 mmHg 43%
    19:00 +20°C° 0 mm 6 mps 703 mmHg 45%
    20:00 +16°C° 0 mm 5 mps 703 mmHg 47%
    21:00 +15°C° 0 mm 5 mps 704 mmHg 47%
    22:00 +14°C° 0 mm 5 mps 704 mmHg 47%
    23:00 +13°C° 0 mm 5 mps 705 mmHg 46%

    25 September, Tuesday

    Time Temperature Precipitation Wind Pressure Humidity
    00:00 +13°C° 0 mm 5 mps 705 mmHg 48%
    01:00 +12°C° 0 mm 5 mps 705 mmHg 49%
    02:00 +12°C° 0 mm 5 mps 705 mmHg 50%
    03:00 +11°C° 0 mm 4 mps 705 mmHg 49%
    04:00 +11°C° 0 mm 4 mps 706 mmHg 49%
    05:00 +11°C° 0 mm 4 mps 706 mmHg 48%
    06:00 +11°C° 0 mm 4 mps 706 mmHg 45%
    07:00 +11°C° 0 mm 4 mps 707 mmHg 42%
    08:00 +11°C° 0 mm 4 mps 707 mmHg 39%
    09:00 +12°C° 0 mm 4 mps 708 mmHg 37%
    10:00 +12°C° 0 mm 4 mps 708 mmHg 35%
    11:00 +13°C° 0 mm 4 mps 708 mmHg 33%
    12:00 +13°C° 0 mm 4 mps 708 mmHg 31%
    13:00 +14°C° 0 mm 4 mps 708 mmHg 29%
    14:00 +14°C° 0 mm 4 mps 708 mmHg 28%
    15:00 +14°C° 0 mm 4 mps 708 mmHg 27%
    16:00 +14°C° 0 mm 3 mps 708 mmHg 26%
    17:00 +14°C° 0 mm 3 mps 708 mmHg 26%
    18:00 +13°C° 0 mm 3 mps 708 mmHg 30%
    19:00 +12°C° 0 mm 2 mps 708 mmHg 34%
    20:00 +9°C° 0 mm 2 mps 708 mmHg 38%
    21:00 +8°C° 0 mm 2 mps 708 mmHg 39%
    22:00 +7°C° 0 mm 2 mps 709 mmHg 41%
    23:00 +7°C° 0 mm 2 mps 709 mmHg 42%

    26 September, Wednesday

    Time Temperature Precipitation Wind Pressure Humidity
    00:00 +6°C° 0 mm 2 mps 709 mmHg 43%
    01:00 +7°C° 0 mm 1 mps 709 mmHg 43%
    02:00 +7°C° 0 mm 1 mps 709 mmHg 44%
    03:00 +6°C° 0 mm 1 mps 709 mmHg 44%
    04:00 +6°C° 0 mm 1 mps 708 mmHg 45%
    05:00 +6°C° 0 mm 1 mps 708 mmHg 46%
    06:00 +7°C° 0 mm 1 mps 708 mmHg 43%
    07:00 +8°C° 0 mm 1 mps 709 mmHg 40%
    08:00 +10°C° 0 mm 1 mps 709 mmHg 37%
    09:00 +10°C° 0 mm 2 mps 709 mmHg 34%
    10:00 +13°C° 0 mm 2 mps 709 mmHg 31%
    11:00 +15°C° 0 mm 2 mps 709 mmHg 28%
    12:00 +15°C° 0 mm 2 mps 708 mmHg 26%
    13:00 +16°C° 0 mm 2 mps 708 mmHg 25%
    14:00 +16°C° 0 mm 3 mps 707 mmHg 23%
    15:00 +16°C° 0 mm 3 mps 707 mmHg 24%
    16:00 +14°C° 0 mm 3 mps 706 mmHg 25%
    17:00 +14°C° 0 mm 4 mps 706 mmHg 25%
    18:00 +13°C° 0 mm 4 mps 707 mmHg 29%
    19:00 +11°C° 0 mm 3 mps 707 mmHg 33%
    20:00 +10°C° 0 mm 3 mps 707 mmHg 36%
    21:00 +9°C° 0.1 mm 3 mps 707 mmHg 44%
    22:00 +8°C° 0.1 mm 3 mps 708 mmHg 51%
    23:00 +7°C° 0.1 mm 3 mps 708 mmHg 59%

    27 September, Thursday

    Time Temperature Precipitation Wind Pressure Humidity
    00:00 +7°C° 0 mm 3 mps 708 mmHg 62%
    01:00 +5°C° 0 mm 3 mps 708 mmHg 65%
    02:00 +5°C° 0 mm 3 mps 708 mmHg 69%
    03:00 +4°C° 0 mm 3 mps 708 mmHg 70%
    04:00 +4°C° 0 mm 3 mps 709 mmHg 71%
    05:00 +3°C° 0 mm 3 mps 709 mmHg 73%
    06:00 +4°C° 0 mm 4 mps 709 mmHg 69%
    07:00 +5°C° 0 mm 4 mps 709 mmHg 65%
    08:00 +5°C° 0 mm 4 mps 709 mmHg 61%
    09:00 +7°C° 0 mm 5 mps 709 mmHg 55%
    10:00 +8°C° 0 mm 5 mps 710 mmHg 49%
    11:00 +10°C° 0 mm 5 mps 710 mmHg 43%
    12:00 +12°C° 0 mm 5 mps 709 mmHg 40%
    13:00 +11°C° 0 mm 6 mps 709 mmHg 37%
    14:00 +13°C° 0 mm 6 mps 708 mmHg 33%
    15:00 +13°C° 0 mm 6 mps 708 mmHg 33%
    16:00 +13°C° 0 mm 5 mps 708 mmHg 33%
    17:00 +13°C° 0 mm 5 mps 707 mmHg 33%
    18:00 +11°C° 0 mm 4 mps 707 mmHg 37%
    19:00 +8°C° 0 mm 4 mps 707 mmHg 40%
    20:00 +7°C° 0 mm 3 mps 706 mmHg 44%
    21:00 +7°C° 0 mm 3 mps 706 mmHg 45%
    22:00 +5°C° 0 mm 3 mps 706 mmHg 46%
    23:00 +6°C° 0 mm 2 mps 705 mmHg 47%
    Show more